Weather History for KRCA - February, 2013

Change the Weather History Date:

Sunday, February 24, 2013

  Actual Average Record
Temperature  
Mean Temperature 28 °F -  
Max Temperature 33 °F 36 °F 59 °F (1999)
Min Temperature 20 °F 17 °F -14 °F (2003)
Degree Days  
Heating Degree Days 38    
Moisture  
Dew Point 27 °F    
Average Humidity 85    
Maximum Humidity 100    
Minimum Humidity 64    
Precipitation  
Precipitation 0.01 in - - ()
Sea Level Pressure  
Sea Level Pressure 30.00 in    
Wind  
Wind Speed 16 mph (NNW)    
Max Wind Speed 26 mph    
Max Gust Speed 34 mph    
Visibility 9 miles    
Events Rain , Snow    
Averages and records for this station are not official NWS values.
T = Trace of Precipitation, MM = Missing Value Source: NWS Daily Summary

Daily Weather History Graph

Daily Weather History Graph

Search for Another Location

Airport or City:

Trip Planner

Search our weather history database for the weather conditions in past years. The results will help you decide how hot, cold, wet, or windy it might be!

Date:

Astronomy

Feb. 24, 2013 Rise Set
Actual Time 6:37 AM MST 5:34 PM MST
Civil Twilight 6:08 AM MST 6:03 PM MST
Nautical Twilight 5:34 AM MST 6:37 PM MST
Astronomical Twilight 5:01 AM MST 7:10 PM MST
Moon 4:48 PM MST (2/24) 5:36 AM MST (2/24)
Length of Visible Light 11h 55m
Length of Day
10h 57m
Waxing Gibbous, 99% of the Moon is Illuminated
Feb 24
Waxing Gibbous
Feb 25
Full
Mar 4
Last Quarter
Mar 11
New
Mar 19
First Quarter

Hourly Weather History & Observations

Time (MST) Temp. Windchill Dew Point Humidity Pressure Visibility Wind Dir Wind Speed Gust Speed Precip Events Conditions
12:00 AM 33.8 °F 27.7 °F 30.2 °F 87% 29.83 in 10.0 mi North 6.9 mph - N/A   Overcast
12:01 AM 33.8 °F 27.7 °F 30.2 °F 87% 29.83 in 10.0 mi North 6.9 mph - N/A   Overcast
12:17 AM 33.8 °F 28.6 °F 30.2 °F 87% 29.84 in 10.0 mi North 5.8 mph - N/A Rain Light Rain
12:26 AM 33.8 °F 28.6 °F 32.0 °F 93% 29.84 in 10.0 mi Variable 5.8 mph - N/A Rain Light Rain
12:37 AM 33.8 °F 26.4 °F 32.0 °F 93% 29.85 in 10.0 mi NNW 9.2 mph - N/A Rain Light Rain
12:49 AM 33.8 °F 25.3 °F 32.0 °F 93% 29.86 in 10.0 mi NNW 11.5 mph - N/A Rain Light Rain
12:55 AM 33.6 °F 24.6 °F 31.6 °F 92% 29.86 in 10.0 mi NNW 12.7 mph - 0.00 in Rain Light Rain
1:15 AM 33.8 °F 25.3 °F 32.0 °F 93% 29.86 in 2.5 mi NNW 11.5 mph - N/A Rain Light Rain
1:21 AM 33.8 °F 25.3 °F 32.0 °F 93% 29.86 in 3.0 mi NNW 11.5 mph - N/A Snow Light Snow
1:55 AM 32.7 °F 22.1 °F 31.5 °F 95% 29.87 in 10.0 mi NNW 16.1 mph - 0.01 in Rain Light Rain
2:16 AM 32.0 °F 20.5 °F 32.0 °F 100% 29.87 in 10.0 mi NNW 18.4 mph - N/A   Overcast
2:26 AM 32.0 °F 20.5 °F 32.0 °F 100% 29.87 in 10.0 mi NNW 18.4 mph 26.5 mph N/A Rain Light Rain
2:37 AM 32.0 °F 19.8 °F 30.2 °F 93% 29.89 in 10.0 mi NNW 20.7 mph 26.5 mph N/A Rain Light Rain
2:40 AM 32.0 °F 19.5 °F 30.2 °F 93% 29.89 in 10.0 mi NNW 21.9 mph - N/A   Overcast
2:41 AM 32.0 °F 20.1 °F 30.2 °F 93% 29.89 in 10.0 mi NNW 19.6 mph - N/A   Overcast
2:43 AM 32.0 °F 18.9 °F 30.2 °F 93% 29.89 in 10.0 mi NNW 24.2 mph 28.8 mph N/A   Overcast
2:55 AM 31.6 °F 20.0 °F 28.0 °F 87% 29.89 in 10.0 mi NNW 18.4 mph 28.8 mph 0.00 in   Overcast
3:01 AM 32.0 °F 20.5 °F 28.4 °F 87% 29.89 in 10.0 mi NNW 18.4 mph - N/A   Overcast
3:06 AM 32.0 °F 20.1 °F 28.4 °F 87% 29.90 in 10.0 mi NNW 19.6 mph 25.3 mph N/A   Overcast
3:26 AM 32.0 °F 20.8 °F 28.4 °F 87% 29.91 in 10.0 mi NNW 17.3 mph 27.6 mph N/A   Overcast
3:28 AM 32.0 °F 20.8 °F 28.4 °F 87% 29.91 in 10.0 mi NNW 17.3 mph 27.6 mph N/A   Overcast
3:35 AM 32.0 °F 20.5 °F 26.6 °F 80% 29.91 in 10.0 mi NNW 18.4 mph - N/A   Overcast
3:45 AM 32.0 °F 20.5 °F 26.6 °F 80% 29.92 in 10.0 mi NNW 18.4 mph - N/A   Overcast
3:55 AM 31.5 °F 20.5 °F 27.1 °F 84% 29.92 in 10.0 mi NNW 16.1 mph - N/A   Overcast
4:01 AM 32.0 °F 21.2 °F 26.6 °F 80% 29.93 in 10.0 mi NNW 16.1 mph - N/A   Overcast
4:36 AM 32.0 °F 20.5 °F 28.4 °F 87% 29.94 in 10.0 mi NNW 18.4 mph - N/A   Overcast
4:40 AM 32.0 °F 20.5 °F 28.4 °F 87% 29.94 in 10.0 mi NNW 18.4 mph - N/A   Overcast
4:42 AM 32.0 °F 20.5 °F 28.4 °F 87% 29.94 in 10.0 mi NNW 18.4 mph - N/A   Overcast
4:43 AM 32.0 °F 20.8 °F 28.4 °F 87% 29.94 in 10.0 mi NNW 17.3 mph - N/A   Overcast
4:46 AM 32.0 °F 21.2 °F 28.4 °F 87% 29.93 in 10.0 mi NNW 16.1 mph - N/A   Overcast
4:48 AM 32.0 °F 20.1 °F 28.4 °F 87% 29.94 in 10.0 mi NNW 19.6 mph - N/A   Overcast
4:55 AM 31.1 °F 18.3 °F 27.7 °F 87% 29.94 in 8.0 mi NNW 21.9 mph 26.5 mph 0.00 in   Overcast
5:00 AM 30.2 °F 17.8 °F 28.4 °F 93% 29.95 in 6.0 mi NNW 19.6 mph - N/A Snow Light Snow
5:06 AM 30.2 °F 18.5 °F 28.4 °F 93% 29.95 in 6.0 mi NNW 17.3 mph - N/A Snow Light Snow
5:11 AM 30.2 °F 18.1 °F 28.4 °F 93% 29.95 in 7.0 mi NNW 18.4 mph - N/A Snow Light Snow
5:45 AM 30.2 °F 19.8 °F 28.4 °F 93% 29.97 in 7.0 mi NNW 13.8 mph - N/A Snow Light Snow
5:55 AM 30.9 °F 20.2 °F 27.9 °F 88% 29.98 in 10.0 mi NNW 15.0 mph - 0.00 in Snow Light Snow
6:10 AM 30.2 °F 18.9 °F 28.4 °F 93% 29.99 in 8.0 mi NNW 16.1 mph - N/A Snow Light Snow
6:14 AM 30.2 °F 18.9 °F 28.4 °F 93% 29.99 in 8.0 mi NNW 16.1 mph - N/A Snow Light Snow
6:15 AM 30.2 °F 18.9 °F 28.4 °F 93% 29.99 in 9.0 mi NNW 16.1 mph - N/A Snow Light Snow
6:21 AM 30.2 °F 18.5 °F 28.4 °F 93% 29.99 in 10.0 mi NNW 17.3 mph - N/A Snow Light Snow
6:25 AM 30.2 °F 17.8 °F 28.4 °F 93% 29.99 in 10.0 mi NNW 19.6 mph - N/A Snow Light Snow
6:34 AM 30.2 °F 18.5 °F 28.4 °F 93% 29.99 in 2.5 mi NNW 17.3 mph - N/A Snow Light Snow
6:36 AM 30.2 °F 18.1 °F 28.4 °F 93% 29.99 in 2.0 mi NNW 18.4 mph - N/A Snow Light Snow
6:38 AM 30.2 °F 18.5 °F 28.4 °F 93% 29.99 in 1.8 mi NNW 17.3 mph - N/A Snow Light Snow
6:39 AM 30.2 °F 18.5 °F 28.4 °F 93% 29.99 in 1.5 mi NNW 17.3 mph - N/A Snow Light Snow
6:42 AM 30.2 °F 18.5 °F 28.4 °F 93% 30.00 in 1.8 mi NNW 17.3 mph - N/A Snow Light Snow
6:45 AM 30.2 °F 18.5 °F 28.4 °F 93% 30.00 in 1.8 mi NNW 17.3 mph - N/A Snow Light Snow
6:46 AM 30.2 °F 18.5 °F 28.4 °F 93% 30.00 in 2.0 mi NNW 17.3 mph - N/A Snow Light Snow
6:49 AM 30.2 °F 17.1 °F 28.4 °F 93% 30.00 in 2.5 mi NNW 21.9 mph 26.5 mph N/A Snow Light Snow
6:51 AM 30.2 °F 17.1 °F 28.4 °F 93% 30.00 in 3.0 mi NNW 21.9 mph 26.5 mph N/A Snow Light Snow
6:55 AM 30.7 °F 17.8 °F 27.9 °F 89% 30.00 in 3.0 mi NNW 21.9 mph 26.5 mph 0.00 in Snow Light Snow
7:03 AM 30.2 °F 17.4 °F 28.4 °F 93% 30.01 in 8.0 mi NNW 20.7 mph - N/A Snow Light Snow
7:10 AM 30.2 °F 18.1 °F 26.6 °F 86% 30.01 in 10.0 mi NNW 18.4 mph - N/A Snow Light Snow
7:55 AM 30.7 °F 18.5 °F 27.0 °F 86% 30.04 in 10.0 mi NNW 19.6 mph 26.5 mph 0.00 in   Overcast
8:55 AM 30.7 °F 17.5 °F 25.2 °F 80% 30.05 in 10.0 mi NNW 23.0 mph 28.8 mph 0.00 in   Overcast
9:54 AM 32.0 °F 19.2 °F 24.8 °F 75% 30.06 in 10.0 mi NNW 23.0 mph 31.1 mph N/A   Overcast
9:55 AM 31.3 °F 18.2 °F 25.0 °F 77% 30.07 in 10.0 mi NNW 23.0 mph 31.1 mph 0.00 in   Overcast
10:16 AM 32.0 °F 19.2 °F 24.8 °F 75% 30.06 in 7.0 mi NNW 23.0 mph 31.1 mph N/A   Overcast
10:21 AM 32.0 °F 19.2 °F 26.6 °F 80% 30.06 in 7.0 mi NNW 23.0 mph 31.1 mph N/A Snow Light Snow
10:25 AM 32.0 °F 20.1 °F 26.6 °F 80% 30.07 in 8.0 mi NNW 19.6 mph 28.8 mph N/A Snow Light Snow
10:35 AM 32.0 °F 19.2 °F 26.6 °F 80% 30.08 in 10.0 mi NNW 23.0 mph 27.6 mph N/A Snow Light Snow
10:44 AM 32.0 °F 19.2 °F 26.6 °F 80% 30.08 in 10.0 mi NNW 23.0 mph - N/A   Overcast
10:50 AM 32.0 °F 18.9 °F 26.6 °F 80% 30.08 in 10.0 mi NNW 24.2 mph 29.9 mph N/A   Overcast
10:55 AM 31.5 °F 18.8 °F 26.1 °F 80% 30.07 in 10.0 mi NNW 21.9 mph 29.9 mph 0.00 in   Overcast
10:57 AM 32.0 °F 19.2 °F 26.6 °F 80% 30.08 in 10.0 mi NNW 23.0 mph 29.9 mph N/A   Overcast
11:00 AM 32.0 °F 18.6 °F 26.6 °F 80% 30.08 in 10.0 mi NNW 25.3 mph 28.8 mph N/A   Overcast
11:05 AM 32.0 °F 18.9 °F 26.6 °F 80% 30.08 in 10.0 mi NNW 24.2 mph - N/A   Overcast
11:16 AM 32.0 °F 18.6 °F 26.6 °F 80% 30.07 in 10.0 mi NNW 25.3 mph 31.1 mph N/A   Overcast
11:40 AM 32.0 °F 18.6 °F 24.8 °F 75% 30.09 in 10.0 mi NNW 25.3 mph 32.2 mph N/A   Overcast
11:55 AM 31.5 °F 18.5 °F 25.5 °F 79% 30.09 in 10.0 mi NNW 23.0 mph 32.2 mph 0.00 in   Overcast
12:55 PM 31.3 °F 17.9 °F 25.0 °F 77% 30.09 in 10.0 mi NNW 24.2 mph 29.9 mph N/A   Overcast
1:36 PM 33.8 °F 20.8 °F 24.8 °F 70% 30.08 in 10.0 mi NNW 26.5 mph 34.5 mph N/A   Mostly Cloudy
1:54 PM 33.8 °F 22.2 °F 26.6 °F 75% 30.08 in 10.0 mi NNW 20.7 mph - N/A   Mostly Cloudy
1:55 PM 33.6 °F 21.6 °F 25.9 °F 73% 30.07 in 10.0 mi NNW 21.9 mph 28.8 mph N/A   Mostly Cloudy
1:59 PM 33.8 °F 21.6 °F 26.6 °F 75% 30.08 in 10.0 mi NNW 23.0 mph 28.8 mph N/A   Mostly Cloudy
2:19 PM 32.0 °F 19.5 °F 24.8 °F 75% 30.09 in 10.0 mi NNW 21.9 mph - N/A   Overcast
2:26 PM 32.0 °F 19.5 °F 24.8 °F 75% 30.08 in 10.0 mi NNW 21.9 mph - N/A   Overcast
2:32 PM 32.0 °F 19.8 °F 24.8 °F 75% 30.08 in 10.0 mi NNW 20.7 mph - N/A   Overcast
2:52 PM 33.8 °F 22.5 °F 24.8 °F 70% 30.09 in 10.0 mi NNW 19.6 mph - N/A   Overcast
2:55 PM 33.1 °F 21.2 °F 25.2 °F 73% 30.09 in 10.0 mi NNW 20.7 mph - N/A   Overcast
3:55 PM 33.6 °F 20.8 °F 24.3 °F 69% 30.09 in 10.0 mi NNW 25.3 mph 28.8 mph N/A   Overcast
4:55 PM 33.4 °F 22.0 °F 23.4 °F 67% 30.11 in 10.0 mi NNW 19.6 mph - N/A   Overcast
5:55 PM 32.7 °F 23.4 °F 21.9 °F 64% 30.12 in 10.0 mi NW 12.7 mph - N/A   Overcast
6:55 PM 28.4 °F 18.5 °F 20.1 °F 71% 30.15 in 10.0 mi NW 11.5 mph - N/A   Clear
7:55 PM 25.5 °F 15.5 °F 19.2 °F 77% 30.17 in 10.0 mi NW 10.4 mph - N/A   Clear
8:55 PM 22.8 °F 12.2 °F 17.6 °F 80% 30.17 in 10.0 mi NW 10.4 mph - N/A   Clear
9:55 PM 27.7 °F 17.6 °F 18.3 °F 68% 30.17 in 10.0 mi NNW 11.5 mph - N/A   Clear
10:55 PM 27.5 °F 18.6 °F 18.0 °F 67% 30.16 in 10.0 mi NW 9.2 mph - N/A   Clear
11:55 PM 20.7 °F 10.2 °F 14.5 °F 77% 30.17 in 10.0 mi NW 9.2 mph - N/A   Clear